Байкадам

Казахстан     43˚43′58″N   69˚55′01″E
темп.,
°C
ветер,
м/с
пор.,
м/с
влажн.,
%
обл.,
%
осадки,
мм/ч
давл.,
гПа
погр.,
м
6 декабря, вс
вс623:00−9˚ссз2291100 0.0 1034116
02:00−9˚с2291100 0.0 1034118
05:00−9˚ссз0091100 0.0 103532
08:00−8˚св1187100 0.0 103544
11:00−6˚в1174100 0.0 1035187
14:00−3˚св216767 0.0 1033286
17:00−7˚с238733 0.0 103425
20:00−8˚ссз22910 0.0 103323
7 декабря, пн
пн723:00−9˚ссз239415 0.0 103236
02:00−10˚сз239575 0.0 103238
05:00−10˚сз239686 0.1 103185
08:00−11˚зсз3495100 0.1 1031162
11:00−9˚сз348299 0.1 1031314
14:00−7˚сз347263 0.0 1031430
17:00−10˚ссз338635 0.0 103345
20:00−11˚сз22910 0.0 103428
8 декабря, вт
вт823:00−11˚сз22900 0.0 103527
02:00−12˚сз12900 0.0 103522
05:00−12˚сз11920 0.0 103521
08:00−12˚ссз11910 0.0 103720
11:00−10˚ссв10780 0.0 1037227
14:00−7˚св21720 0.0 1036297
17:00−9˚св33870 0.0 103730
20:00−10˚в23880 0.0 103823
9 декабря, ср
ср923:00−10˚в33870 0.0 103831
02:00−9˚в349320 0.0 103935
05:00−9˚в349545 0.0 103841
08:00−9˚вюв349472 0.0 103847
11:00−6˚вюв467836 0.0 1037337
14:00−3˚в45670 0.0 1035505
17:00−6˚всв44860 0.0 103550
20:00−7˚в44870 0.0 103557
10 декабря, чт
чт1023:00−8˚в34900 0.0 103440
02:00−8˚в33910 0.0 103424
05:00−8˚в33910 0.0 103426
08:00−8˚в23890 0.0 103421
11:00−5˚в33740 0.0 1035285
14:00−3˚всв33700 0.0 1034377
17:00−6˚всв34890 0.0 103551
20:00−7˚всв34860 0.0 103645